Regional Weather Roundup
Issued by NWS

Home | Current Version | Previous Version | Graphics & Text | Print | Product List | Glossary On
Versions: 1 2 3 4 5 6 7 8 9 10 11 12 13 14 15 16 17 18 19 20 21 22 23 24 25 26 27 28 29 30 31 32 33 34 35 36 37 38 39 40 41 42 43 44 45 46 47 48 49 50
000
ASUS43 KLMK 281802
RWRKY
KENTUCKY REGIONAL WEATHER ROUNDUP
NATIONAL WEATHER SERVICE LOUISVILLE KY
200 PM EDT THU JUL 28 2016

NOTE "FAIR" INDICATES FEW OR NO CLOUDS BELOW 12,000 FEET
WITH NO SIGNIFICANT WEATHER AND/OR OBSTRUCTIONS TO VISIBILITY.

KYZ001>023-026-027-061>063-070>075-281900-
WESTERN AND SOUTH CENTRAL KENTUCKY

CITY           SKY/WX    TMP DP  RH WIND       PRES   REMARKS
PADUCAH        MOSUNNY   85  75  72 W8        29.91F HX  93
HENDERSON      CLOUDY    82  73  74 W6        29.89S
OWENSBORO      CLOUDY    82  75  79 SW6       29.91F
HOPKINSVILLE   CLOUDY    81  71  72 VRB2      29.92F
BOWLING GREEN  CLOUDY    77  72  84 NE6       29.92F
GLASGOW        NOT AVBL
$$

KYZ024-025-028>034-038-045-046-053-281900-
NORTH CENTRAL KENTUCKY

CITY           SKY/WX    TMP DP  RH WIND       PRES   REMARKS
LOUISVILLE/SDF CLOUDY    82  72  71 W8        29.90F
LOUISVILLE/LOU CLOUDY    79  71  76 W5        29.91F
FORT KNOX      NOT AVBL
$$

KYZ035>037-039>044-047>052-055>060-089>105-281900-
NORTHEAST KENTUCKY

CITY           SKY/WX    TMP DP  RH WIND       PRES   REMARKS
LEXINGTON      LGT RAIN  76  71  85 W6        29.94S
COVINGTON      CLOUDY    77  71  82 CALM      29.91F
FRANKFORT      CLOUDY    77  70  79 SW7       29.91F
$$

KYZ054-064>069-076>088-106>120-281900-
SOUTHEAST KENTUCKY

CITY           SKY/WX    TMP DP  RH WIND       PRES   REMARKS
JACKSON        LGT RAIN  70  68  93 CALM      29.95S
LONDON         PTSUNNY   76  66  71 NW7       29.95F
SOMERSET       HVY RAIN  72  72 100 N5        29.96S
MIDDLESBORO    MOSUNNY   85  71  63 S7        29.94F HX  90
MONTICELLO     LGT RAIN N/A N/A N/A N13       29.97S
$$




USA.gov is the U.S. government's official web portal to all federal, state and local government web resources and services.